Weather History for Orange City, IA

Change the Weather History Date:

Saturday, October 5, 2013

  Actual Average Record
Temperature  
Mean Temperature 44 °F -  
Max Temperature 51 °F 68 °F 84 °F (2011)
Min Temperature 37 °F 45 °F 26 °F (1952)
Degree Days  
Heating Degree Days 21    
Moisture  
Dew Point 34 °F    
Average Humidity 67    
Maximum Humidity 87    
Minimum Humidity 47    
Precipitation  
Precipitation 0.00 in - - ()
Sea Level Pressure  
Sea Level Pressure 29.77 in    
Wind  
Wind Speed 13 mph (SW)    
Max Wind Speed 25 mph    
Max Gust Speed 30 mph    
Visibility 10 miles    
Events Rain    
Averages and records for this station are not official NWS values.
T = Trace of Precipitation, MM = Missing Value Source: NWS Daily Summary

Daily Weather History Graph

Daily Weather History Graph

Search for Another Location

Airport:

Trip Planner

Search our weather history database for the weather conditions in past years. The results will help you decide how hot, cold, wet, or windy it might be!

Date:

Astronomy

Oct. 05, 2013 Rise Set
Actual Time 7:26 AM CDT 6:57 PM CDT
Civil Twilight 6:58 AM CDT 7:26 PM CDT
Nautical Twilight 6:25 AM CDT 7:59 PM CDT
Astronomical Twilight 5:52 AM CDT 8:32 PM CDT
Moon 8:08 AM CDT (10/5) 7:15 PM CDT (10/5)
Length of Visible Light 12h 28m
Length of Day
11h 31m
New Moon, 1% of the Moon is Illuminated
Oct 5
New Moon
Oct 11
First Quarter
Oct 18
Full
Oct 26
Last Quarter
Nov 3
New

Hourly Weather History & Observations

Time (CDT) Temp. Windchill Dew Point Humidity Pressure Visibility Wind Dir Wind Speed Gust Speed Precip Events Conditions
12:35 AM 48.2 °F - 39.2 °F 71% 29.80 in 10.0 mi WSW 10.4 mph 17.3 mph N/A   Clear
12:55 AM 46.4 °F 41.5 °F 39.2 °F 76% 29.80 in 10.0 mi WSW 10.4 mph - N/A   Clear
1:15 AM 46.4 °F 41.5 °F 39.2 °F 76% 29.81 in 10.0 mi SW 10.4 mph 17.3 mph N/A   Clear
1:35 AM 46.4 °F 41.1 °F 37.4 °F 71% 29.81 in 10.0 mi SW 11.5 mph - N/A   Scattered Clouds
1:55 AM 46.4 °F 39.8 °F 37.4 °F 71% 29.82 in 10.0 mi SW 16.1 mph - N/A   Scattered Clouds
2:15 AM 44.6 °F 38.4 °F 37.4 °F 76% 29.83 in 10.0 mi SW 12.7 mph - N/A   Scattered Clouds
2:35 AM 44.6 °F 37.2 °F 37.4 °F 76% 29.84 in 10.0 mi SW 17.3 mph 21.9 mph N/A   Scattered Clouds
2:55 AM 44.6 °F 37.8 °F 35.6 °F 71% 29.83 in 10.0 mi SW 15.0 mph 19.6 mph N/A   Scattered Clouds
3:15 AM 42.8 °F 36.6 °F 35.6 °F 76% 29.82 in 10.0 mi SW 11.5 mph - N/A   Scattered Clouds
3:35 AM 42.8 °F 36.2 °F 33.8 °F 70% 29.81 in 10.0 mi SSW 12.7 mph 16.1 mph N/A   Clear
3:55 AM 42.8 °F 35.8 °F 33.8 °F 70% 29.81 in 10.0 mi SSW 13.8 mph 18.4 mph N/A   Clear
4:15 AM 41.0 °F 33.5 °F 33.8 °F 76% 29.82 in 10.0 mi SSW 13.8 mph 18.4 mph N/A   Scattered Clouds
4:35 AM 41.0 °F 33.5 °F 33.8 °F 76% 29.81 in 10.0 mi SSW 13.8 mph 18.4 mph N/A   Clear
4:55 AM 39.2 °F 31.6 °F 33.8 °F 81% 29.81 in 10.0 mi SSW 12.7 mph 18.4 mph N/A   Clear
5:15 AM 39.2 °F 31.2 °F 33.8 °F 81% 29.81 in 10.0 mi SSW 13.8 mph 18.4 mph N/A   Clear
5:35 AM 39.2 °F 33.0 °F 33.8 °F 81% 29.80 in 10.0 mi SSW 9.2 mph 17.3 mph N/A   Clear
5:55 AM 39.2 °F 31.6 °F 33.8 °F 81% 29.80 in 10.0 mi SSW 12.7 mph - N/A   Clear
6:15 AM 39.2 °F 32.5 °F 33.8 °F 81% 29.80 in 10.0 mi SSW 10.4 mph - N/A   Clear
6:35 AM 39.2 °F 32.5 °F 32.0 °F 75% 29.80 in 10.0 mi SSW 10.4 mph 17.3 mph N/A   Clear
6:55 AM 39.2 °F 32.0 °F 32.0 °F 75% 29.80 in 10.0 mi SSW 11.5 mph 17.3 mph N/A   Clear
7:15 AM 39.2 °F 31.2 °F 32.0 °F 75% 29.79 in 10.0 mi SSW 13.8 mph 19.6 mph N/A   Clear
7:35 AM 37.4 °F 30.3 °F 30.2 °F 75% 29.79 in 10.0 mi SSW 10.4 mph - N/A   Clear
7:55 AM 37.4 °F 30.3 °F 30.2 °F 75% 29.79 in 10.0 mi SSW 10.4 mph - N/A   Clear
8:15 AM 39.2 °F 31.6 °F 32.0 °F 75% 29.79 in 10.0 mi SSW 12.7 mph - N/A   Clear
8:35 AM 41.0 °F 33.1 °F 33.8 °F 76% 29.79 in 10.0 mi SSW 15.0 mph 19.6 mph N/A   Clear
8:55 AM 42.8 °F 35.1 °F 32.0 °F 66% 29.79 in 10.0 mi SSW 16.1 mph 24.2 mph N/A   Clear
9:15 AM 42.8 °F 34.0 °F 32.0 °F 66% 29.79 in 10.0 mi SSW 20.7 mph 26.5 mph N/A   Clear
9:35 AM 44.6 °F 37.2 °F 32.0 °F 61% 29.79 in 10.0 mi SW 17.3 mph 23.0 mph N/A   Clear
9:55 AM 44.6 °F 37.2 °F 32.0 °F 61% 29.78 in 10.0 mi SSW 17.3 mph 25.3 mph N/A   Clear
10:15 AM 46.4 °F 39.2 °F 32.0 °F 57% 29.78 in 10.0 mi SW 18.4 mph 25.3 mph N/A   Clear
10:35 AM 46.4 °F 39.0 °F 32.0 °F 57% 29.78 in 10.0 mi SSW 19.6 mph 26.5 mph N/A   Scattered Clouds
10:55 AM 46.4 °F 38.7 °F 32.0 °F 57% 29.78 in 10.0 mi SSW 20.7 mph 26.5 mph N/A   Scattered Clouds
11:15 AM 48.2 °F - 32.0 °F 54% 29.78 in 10.0 mi SSW 19.6 mph 26.5 mph N/A   Scattered Clouds
11:35 AM 48.2 °F - 32.0 °F 54% 29.78 in 10.0 mi SSW 18.4 mph 27.6 mph N/A   Scattered Clouds
11:55 AM 50.0 °F - 32.0 °F 50% 29.78 in 10.0 mi SSW 20.7 mph 26.5 mph N/A   Mostly Cloudy
12:15 PM 50.0 °F - 32.0 °F 50% 29.78 in 10.0 mi SSW 20.7 mph 27.6 mph N/A   Scattered Clouds
12:35 PM 50.0 °F - 32.0 °F 50% 29.78 in 10.0 mi SSW 25.3 mph 29.9 mph N/A   Clear
12:55 PM 51.8 °F - 32.0 °F 47% 29.78 in 10.0 mi SSW 20.7 mph 28.8 mph N/A   Mostly Cloudy
1:15 PM 50.0 °F - 32.0 °F 50% 29.77 in 10.0 mi SSW 23.0 mph 27.6 mph N/A   Overcast
1:35 PM 50.0 °F - 33.8 °F 54% 29.77 in 10.0 mi SSW 18.4 mph 25.3 mph N/A   Overcast
1:55 PM 48.2 °F - 32.0 °F 54% 29.76 in 10.0 mi SSW 17.3 mph 24.2 mph N/A   Overcast
2:15 PM 48.2 °F - 32.0 °F 54% 29.75 in 10.0 mi SW 19.6 mph 24.2 mph N/A   Overcast
2:35 PM 48.2 °F - 33.8 °F 58% 29.75 in 10.0 mi SW 18.4 mph 21.9 mph N/A   Overcast
2:55 PM 48.2 °F - 33.8 °F 58% 29.75 in 10.0 mi SW 17.3 mph 25.3 mph N/A   Overcast
3:15 PM 48.2 °F - 33.8 °F 58% 29.76 in 10.0 mi SW 20.7 mph - N/A   Overcast
3:35 PM 48.2 °F - 33.8 °F 58% 29.75 in 10.0 mi SSW 15.0 mph 24.2 mph N/A   Overcast
3:55 PM 48.2 °F - 33.8 °F 58% 29.74 in 10.0 mi SSW 21.9 mph 27.6 mph N/A   Overcast
4:15 PM 48.2 °F - 33.8 °F 58% 29.74 in 10.0 mi SSW 18.4 mph - N/A   Overcast
4:35 PM 48.2 °F - 33.8 °F 58% 29.73 in 10.0 mi SW 18.4 mph 24.2 mph N/A   Overcast
4:55 PM 48.2 °F - 33.8 °F 58% 29.73 in 10.0 mi SW 18.4 mph 23.0 mph N/A   Overcast
5:15 PM 48.2 °F - 33.8 °F 58% 29.72 in 10.0 mi SW 17.3 mph - N/A   Overcast
5:35 PM 46.4 °F 40.1 °F 33.8 °F 62% 29.72 in 10.0 mi SSW 15.0 mph 20.7 mph N/A   Overcast
5:55 PM 48.2 °F - 33.8 °F 58% 29.73 in 10.0 mi SSW 17.3 mph 23.0 mph N/A   Overcast
6:15 PM 46.4 °F 41.5 °F 33.8 °F 62% 29.73 in 10.0 mi SW 10.4 mph 19.6 mph N/A   Overcast
6:35 PM 46.4 °F 40.1 °F 33.8 °F 62% 29.73 in 10.0 mi WSW 15.0 mph 18.4 mph N/A   Overcast
6:55 PM 46.4 °F 41.1 °F 33.8 °F 62% 29.74 in 10.0 mi SW 11.5 mph - N/A   Overcast
7:15 PM 46.4 °F 42.4 °F 33.8 °F 62% 29.73 in 10.0 mi SW 8.1 mph - N/A   Overcast
7:35 PM 44.6 °F 40.2 °F 33.8 °F 66% 29.74 in 10.0 mi SW 8.1 mph - N/A   Overcast
7:55 PM 44.6 °F 39.7 °F 35.6 °F 71% 29.74 in 10.0 mi SSW 9.2 mph - N/A   Overcast
8:15 PM 44.6 °F 42.2 °F 35.6 °F 71% 29.73 in 10.0 mi SW 4.6 mph - N/A   Overcast
8:35 PM 44.6 °F 40.2 °F 35.6 °F 71% 29.74 in 10.0 mi SSW 8.1 mph - N/A   Overcast
8:55 PM 44.6 °F 40.2 °F 35.6 °F 71% 29.74 in 10.0 mi SW 8.1 mph - N/A   Overcast
9:15 PM 44.6 °F 41.4 °F 35.6 °F 71% 29.74 in 10.0 mi SW 5.8 mph - N/A   Overcast
9:35 PM 42.8 °F 39.3 °F 35.6 °F 76% 29.74 in 10.0 mi SW 5.8 mph - N/A   Overcast
9:55 PM 42.8 °F 39.3 °F 35.6 °F 76% 29.74 in 10.0 mi SSW 5.8 mph - N/A   Overcast
10:15 PM 42.8 °F 40.1 °F 33.8 °F 70% 29.74 in 10.0 mi SSW 4.6 mph - N/A   Overcast
10:35 PM 42.8 °F 41.1 °F 33.8 °F 70% 29.74 in 10.0 mi SW 3.5 mph - N/A   Overcast
10:55 PM 42.8 °F - 33.8 °F 70% 29.75 in 10.0 mi Calm Calm - N/A   Overcast
11:15 PM 42.8 °F - 35.6 °F 76% 29.74 in 10.0 mi Calm Calm - N/A   Overcast
11:35 PM 42.8 °F - 37.4 °F 81% 29.74 in 10.0 mi Calm Calm - N/A Rain Light Rain
11:55 PM 41.0 °F - 37.4 °F 87% 29.73 in 10.0 mi Calm Calm - N/A   Drizzle